Regional Weather Roundup
Issued by NWS

Home | Current Version | Previous Version | Graphics & Text | Print | Product List | Glossary Off
Versions: 1 2 3 4 5 6 7 8 9 10 11 12 13 14 15 16 17 18 19 20 21 22 23 24 25 26 27 28 29 30 31 32 33 34 35 36 37 38 39 40 41 42 43 44 45 46 47 48 49 50

000
ASUS45 KBOU 280507
RWRCO

WEATHER ROUNDUP FOR COLORADO
NATIONAL WEATHER SERVICE DENVER/BOULDER CO
1100 PM MDT FRI MAY 27 2016

NOTE: "FAIR" INDICATES FEW OR NO CLOUDS BELOW 12000 FEET WITH NO
SIGNIFICANT WEATHER AND/OR OBSTRUCTIONS TO VISIBILITY.

COZ001>005-013-030-031-280600-
...NORTHWEST COLORADO...

CITY           SKY/WX    TMP DP  RH WIND       PRES   REMARKS
CRAIG          MOCLDY    46  41  82 NE5       30.06R
HAYDEN         MOCLDY    45  37  76 E6        30.05S
MEEKER         FAIR      41  37  86 NE3       30.05R
MOUNT WERNER   NOT AVBL
STEAMBOAT SPGS MOCLDY    40  37  89 CALM      30.07R
WALDEN         FAIR      36  32  87 SE6       30.09F
$$

COZ006>008-011-280600-
...WEST CENTRAL VALLEYS...

CITY           SKY/WX    TMP DP  RH WIND       PRES   REMARKS
GRAND JUNCTION FAIR      52  45  77 S8        29.98S
MONTROSE       FAIR      53  34  48 NE5       30.05R
EAGLE          FAIR      43  39  87 NE3       30.10S
RIFLE          FAIR      47  38  71 CALM      30.04R
DELTA          CLOUDY    59  40  49 S5        30.02R
NUCLA          MOCLDY    55  34  44 NE5       30.06R
$$

COZ017>023-064>068-280600-
...SOUTHWEST COLORADO...

CITY           SKY/WX    TMP DP  RH WIND       PRES   REMARKS
DURANGO        FAIR      45  31  58 N3        30.05R
CORTEZ         FAIR      48  32  53 VRB3      30.01R
PAGOSA SPRINGS FAIR      42  35  76 CALM      30.10S
TELLURIDE      FAIR      40  33  76 CALM      30.18R
WOLF CREEK PAS FAIR      30  25  80 NW8       30.28R WCI  23
$$

COZ009-010-012-014-032>034-037-058>063-280600-
...CENTRAL COLORADO...

CITY           SKY/WX    TMP DP  RH WIND       PRES   REMARKS
ASPEN          FAIR      38  32  79 S5        30.09S
BUENA VISTA    FAIR      39  31  75 W3        30.10R
COPPER MTN     NOT AVBL
BERTHOUD PASS  HAZE      23  14  68 NW21      30.19S VSB<1/4 WCI   8
COTTONWOOD PAS FAIR      41  28  60 S5        30.16R
GUNNISON       FAIR      39  34  81 CALM      30.13S
KREMMLING      FAIR      37  34  87 SE3       30.10S
LEADVILLE      FAIR      29  28  96 CALM      30.14S
MONARCH PASS   FAIR      28  27  93 W9G17     30.33S WCI  20
SALIDA         FAIR      42  35  74 W3        30.17R
SUNLIGHT       FAIR      34  30  86 CALM      30.23S
WILKERSON PASS FAIR      30  28  93 W6        30.21S WCI  24
$$

COZ069>075-280600-
...SAN LUIS VALLEY/SANGRE DE CRISTO MOUNTAINS...

CITY           SKY/WX    TMP DP  RH WIND       PRES   REMARKS
ALAMOSA        FAIR      38  37  97 S7        30.08F
LA VETA PASS   FAIR      34  32  93 S6        30.16S WCI  29
SAGUACHE       CLOUDY    43  32  65 NW12      30.10S
$$

COZ035-036-038>040-280600-
...NORTHERN COLORADO FRONT RANGE...

CITY           SKY/WX    TMP DP  RH WIND       PRES   REMARKS
DENVER INTL AP FAIR      49  44  83 W8        29.97F
DMNS CITY PARK   N/A     49  41  72 SE6       29.98F
AURORA         PTCLDY    46  42  85 SW6       30.00S
FRONT RANGE AP NOT AVBL
ERIE MUNI ARPT CLOUDY    50  45  81 W7        29.96F
BOULDER MUN AP LGT RAIN  50  43  76 SW9       29.97F
CENTENNIAL     FAIR      47  39  74 SW6       30.00S
BROOMFIELD     NOT AVBL
FORT COLLINS   FAIR      48  39  71 SW3       29.96F
LONGMONT       MOCLDY    52  44  74 CALM      29.97F
$$

COZ041-046-047-076>085-087-088-280600-
...PIKES PEAK/PALMER DIVIDE AND SOUTHERN FOOTHILLS...

CITY           SKY/WX    TMP DP  RH WIND       PRES   REMARKS
COLO. SPRINGS  MOCLDY    48  38  68 VRB5      30.03S
A. F. ACADEMY  FAIR      41  37  87 N1        30.03R
SCHRIEVER AFB  NOT AVBL
ELLICOTT       FAIR     N/A N/A N/A W8        30.02R
FALCON         FAIR      40  37  86 SW8       30.06R
FORT CARSON    FAIR      50  40  69 SW5       30.00F
LIMON          FAIR      42  40  92 W9        29.96F
MONUMENT HILL  FAIR      36  34  93 W5        30.06S
TRINIDAD       FAIR      45  40  82 W8        30.03R
$$

COZ042>045-048>051-090-091-280600-
...NORTHEAST COLORADO...

CITY           SKY/WX    TMP DP  RH WIND       PRES   REMARKS
GREELEY ARPT   FAIR      48  45  87 W3        29.94F
AKRON          FAIR      46  43  89 W12       29.92S
BURLINGTON     FAIR      49  45  86 W10       29.89R
WRAY           NOT AVBL
STERLING       FAIR      48  45  87 NW10      29.90S
HOLYOKE        FAIR      54  48  82 NW9       29.87S
FORT MORGAN    FAIR      46  40  81 NW7       29.94S
$$

COZ086-089-092>099-280600-
...SOUTHEAST COLORADO...

CITY           SKY/WX    TMP DP  RH WIND       PRES   REMARKS
PUEBLO         MOCLDY    54  45  71 CALM      29.98F
LA JUNTA       FAIR      51  45  79 W9        29.95R
LAMAR          FAIR      47  44  90 SW7       29.89S
SPRINGFIELD      N/A     49  42  77 W8        29.93R
$$



USA.gov is the U.S. government's official web portal to all federal, state and local government web resources and services.